Time,TemperatureF,DewpointF,PressureIn,WindDirection,WindDirectionDegrees,WindSpeedMPH,WindSpeedGustMPH,Humidity,HourlyPrecipIn,Conditions,Clouds,dailyrainin,SolarRadiationWatts/m^2,SoftwareType,DateUTC
2013-04-09 00:02:00,45.8,42.0,29.58,NNE,28,5.0,12.0,85,0.03,,,0.00,0,weatherlink.com 1.10,2013-04-09 07:02:00,
2013-04-09 00:17:00,45.6,42.0,29.59,NNE,18,5.0,8.0,88,0.06,,,0.03,0,weatherlink.com 1.10,2013-04-09 07:17:00,
2013-04-09 00:33:00,45.5,43.0,29.61,North,9,4.0,9.0,90,0.07,,,0.04,0,weatherlink.com 1.10,2013-04-09 07:33:00,
2013-04-09 00:48:00,45.6,43.0,29.61,North,9,0.0,3.0,90,0.06,,,0.04,0,weatherlink.com 1.10,2013-04-09 07:48:00,
2013-04-09 01:03:00,46.0,44.0,29.62,North,9,2.0,3.0,91,0.06,,,0.06,0,weatherlink.com 1.10,2013-04-09 08:03:00,
2013-04-09 01:18:00,45.9,44.0,29.62,North,9,2.0,3.0,91,0.04,,,0.07,0,weatherlink.com 1.10,2013-04-09 08:18:00,
2013-04-09 01:33:00,45.6,43.0,29.62,North,9,0.0,1.0,91,0.03,,,0.07,0,weatherlink.com 1.10,2013-04-09 08:33:00,
2013-04-09 01:48:00,45.3,43.0,29.62,North,9,0.0,2.0,91,0.03,,,0.07,0,weatherlink.com 1.10,2013-04-09 08:48:00,
2013-04-09 02:03:00,45.2,43.0,29.62,North,9,1.0,2.0,92,0.01,,,0.07,0,weatherlink.com 1.10,2013-04-09 09:03:00,
2013-04-09 02:18:00,45.4,44.0,29.63,North,9,0.0,0.0,93,0.00,,,0.07,0,weatherlink.com 1.10,2013-04-09 09:18:00,
2013-04-09 02:33:00,45.4,44.0,29.64,North,9,0.0,0.0,93,0.00,,,0.07,0,weatherlink.com 1.10,2013-04-09 09:33:00,
2013-04-09 02:48:00,45.5,44.0,29.63,North,9,0.0,2.0,93,0.00,,,0.07,0,weatherlink.com 1.10,2013-04-09 09:48:00,
2013-04-09 03:03:00,45.4,44.0,29.63,North,9,0.0,2.0,93,0.00,,,0.07,0,weatherlink.com 1.10,2013-04-09 10:03:00,
2013-04-09 03:18:00,45.9,44.0,29.64,North,9,1.0,1.0,94,0.00,,,0.07,0,weatherlink.com 1.10,2013-04-09 10:18:00,
2013-04-09 03:33:00,46.1,44.0,29.64,North,9,0.0,1.0,93,0.00,,,0.07,0,weatherlink.com 1.10,2013-04-09 10:33:00,
2013-04-09 03:48:00,46.3,44.0,29.65,North,9,0.0,3.0,93,0.00,,,0.07,0,weatherlink.com 1.10,2013-04-09 10:48:00,
2013-04-09 04:03:00,46.4,45.0,29.66,North,9,1.0,2.0,93,0.00,,,0.07,0,weatherlink.com 1.10,2013-04-09 11:03:00,
2013-04-09 04:18:00,46.5,45.0,29.66,North,9,0.0,2.0,93,0.00,,,0.07,0,weatherlink.com 1.10,2013-04-09 11:18:00,
2013-04-09 04:33:00,46.6,45.0,29.66,North,9,0.0,1.0,93,0.00,,,0.07,0,weatherlink.com 1.10,2013-04-09 11:33:00,
2013-04-09 04:48:00,46.8,45.0,29.66,North,9,0.0,1.0,93,0.00,,,0.07,0,weatherlink.com 1.10,2013-04-09 11:48:00,
2013-04-09 05:03:00,47.0,45.0,29.67,North,9,0.0,2.0,93,0.00,,,0.07,0,weatherlink.com 1.10,2013-04-09 12:03:00,
2013-04-09 05:18:00,47.1,46.0,29.68,North,9,2.0,4.0,94,0.00,,,0.07,0,weatherlink.com 1.10,2013-04-09 12:18:00,
2013-04-09 05:33:00,47.0,45.0,29.68,North,9,0.0,2.0,93,0.00,,,0.07,0,weatherlink.com 1.10,2013-04-09 12:33:00,
2013-04-09 05:48:00,47.1,45.0,29.69,North,9,0.0,1.0,93,0.00,,,0.07,0,weatherlink.com 1.10,2013-04-09 12:48:00,
2013-04-09 06:03:00,47.3,45.0,29.69,North,9,0.0,2.0,93,0.00,,,0.07,0,weatherlink.com 1.10,2013-04-09 13:03:00,
2013-04-09 06:18:00,47.5,46.0,29.69,North,9,2.0,5.0,93,0.00,,,0.07,14,weatherlink.com 1.10,2013-04-09 13:18:00,
2013-04-09 06:33:00,47.8,45.0,29.70,North,9,2.0,5.0,89,0.00,,,0.07,21,weatherlink.com 1.10,2013-04-09 13:33:00,
2013-04-09 06:48:00,48.0,45.0,29.71,North,9,0.0,3.0,88,0.00,,,0.07,28,weatherlink.com 1.10,2013-04-09 13:48:00,
2013-04-09 07:48:00,49.7,41.0,29.74,NNE,12,1.0,5.0,71,0.00,,,0.07,169,weatherlink.com 1.10,2013-04-09 14:48:00,
2013-04-09 08:04:00,50.5,40.0,29.75,NNW,344,3.0,6.0,68,0.00,,,0.07,121,weatherlink.com 1.10,2013-04-09 15:04:00,
2013-04-09 08:19:00,51.1,39.0,29.76,NNW,344,0.0,7.0,64,0.00,,,0.07,156,weatherlink.com 1.10,2013-04-09 15:19:00,
2013-04-09 08:49:00,52.5,39.0,29.77,NNW,348,4.0,6.0,60,0.00,,,0.07,197,weatherlink.com 1.10,2013-04-09 15:49:00,
2013-04-09 09:04:00,53.2,39.0,29.77,NNE,28,2.0,5.0,58,0.00,,,0.07,230,weatherlink.com 1.10,2013-04-09 16:04:00,
2013-04-09 09:19:00,53.9,38.0,29.77,NNE,28,0.0,7.0,55,0.00,,,0.07,204,weatherlink.com 1.10,2013-04-09 16:19:00,
2013-04-09 09:34:00,55.2,38.0,29.77,NNE,28,9.0,12.0,52,0.00,,,0.07,575,weatherlink.com 1.10,2013-04-09 16:34:00,
2013-04-09 09:49:00,56.7,36.0,29.78,NNE,26,7.0,12.0,46,0.00,,,0.07,810,weatherlink.com 1.10,2013-04-09 16:49:00,
2013-04-09 10:05:00,57.5,36.0,29.78,NNE,28,6.0,14.0,44,0.00,,,0.07,350,weatherlink.com 1.10,2013-04-09 17:05:00,
2013-04-09 10:19:00,57.9,35.0,29.79,NNE,30,7.0,13.0,42,0.00,,,0.07,418,weatherlink.com 1.10,2013-04-09 17:19:00,
2013-04-09 10:34:00,59.0,35.0,29.79,NE,37,7.0,14.0,41,0.00,,,0.07,323,weatherlink.com 1.10,2013-04-09 17:34:00,
2013-04-09 10:49:00,59.4,34.0,29.79,NNE,21,9.0,16.0,38,0.00,,,0.07,990,weatherlink.com 1.10,2013-04-09 17:49:00,
2013-04-09 11:04:00,59.3,32.0,29.79,NNE,21,9.0,16.0,36,0.00,,,0.07,276,weatherlink.com 1.10,2013-04-09 18:04:00,
2013-04-09 11:19:00,59.8,33.0,29.79,NNW,338,7.0,15.0,36,0.00,,,0.07,288,weatherlink.com 1.10,2013-04-09 18:19:00,
2013-04-09 11:34:00,61.0,32.0,29.79,NE,44,7.0,14.0,33,0.00,,,0.07,341,weatherlink.com 1.10,2013-04-09 18:34:00,
2013-04-09 11:49:00,60.7,31.0,29.79,NE,54,3.0,15.0,33,0.00,,,0.07,323,weatherlink.com 1.10,2013-04-09 18:49:00,
2013-04-09 12:04:00,60.9,30.0,29.79,North,5,7.0,14.0,31,0.00,,,0.07,327,weatherlink.com 1.10,2013-04-09 19:04:00,
2013-04-09 12:19:00,60.7,29.0,29.79,NE,49,11.0,16.0,30,0.00,,,0.07,373,weatherlink.com 1.10,2013-04-09 19:19:00,
2013-04-09 12:49:00,61.4,27.0,29.79,NE,48,11.0,18.0,27,0.00,,,0.07,427,weatherlink.com 1.10,2013-04-09 19:49:00,
2013-04-09 13:04:00,62.3,27.0,29.79,NNE,19,11.0,17.0,26,0.00,,,0.07,330,weatherlink.com 1.10,2013-04-09 20:04:00,
2013-04-09 13:19:00,62.1,28.0,29.80,NE,37,11.0,19.0,27,0.00,,,0.07,536,weatherlink.com 1.10,2013-04-09 20:19:00,
2013-04-09 13:34:00,62.5,29.0,29.79,ENE,61,4.0,17.0,28,0.00,,,0.07,438,weatherlink.com 1.10,2013-04-09 20:34:00,
2013-04-09 13:49:00,64.4,29.0,29.80,ENE,73,15.0,17.0,26,0.00,,,0.07,710,weatherlink.com 1.10,2013-04-09 20:49:00,
2013-04-09 14:05:00,64.6,28.0,29.80,ENE,67,10.0,14.0,25,0.00,,,0.07,422,weatherlink.com 1.10,2013-04-09 21:05:00,
2013-04-09 14:20:00,63.3,28.0,29.80,NE,34,12.0,21.0,26,0.00,,,0.07,360,weatherlink.com 1.10,2013-04-09 21:20:00,
2013-04-09 14:35:00,63.4,27.0,29.80,NE,40,15.0,16.0,25,0.00,,,0.07,364,weatherlink.com 1.10,2013-04-09 21:35:00,
2013-04-09 14:50:00,63.1,27.0,29.80,North,9,14.0,17.0,25,0.00,,,0.07,413,weatherlink.com 1.10,2013-04-09 21:50:00,
2013-04-09 15:05:00,64.5,28.0,29.80,NE,36,10.0,18.0,25,0.00,,,0.07,671,weatherlink.com 1.10,2013-04-09 22:05:00,
2013-04-09 15:20:00,64.7,27.0,29.80,NE,36,7.0,12.0,24,0.00,,,0.07,255,weatherlink.com 1.10,2013-04-09 22:20:00,
2013-04-09 15:35:00,64.4,26.0,29.81,NE,37,2.0,18.0,23,0.00,,,0.07,272,weatherlink.com 1.10,2013-04-09 22:35:00,
2013-04-09 15:50:00,63.7,25.0,29.80,ENE,65,7.0,16.0,23,0.00,,,0.07,241,weatherlink.com 1.10,2013-04-09 22:50:00,
2013-04-09 16:05:00,63.4,26.0,29.81,NNE,28,10.0,15.0,24,0.00,,,0.07,302,weatherlink.com 1.10,2013-04-09 23:05:00,
2013-04-09 16:35:00,62.8,24.0,29.82,NE,44,9.0,14.0,23,0.00,,,0.07,121,weatherlink.com 1.10,2013-04-09 23:35:00,
2013-04-09 16:50:00,64.2,25.0,29.82,ENE,68,7.0,12.0,23,0.00,,,0.07,311,weatherlink.com 1.10,2013-04-09 23:50:00,
2013-04-09 17:05:00,63.6,24.0,29.82,ENE,69,2.0,15.0,22,0.00,,,0.07,105,weatherlink.com 1.10,2013-04-10 00:05:00,
2013-04-09 17:20:00,63.1,23.0,29.83,ENE,61,5.0,14.0,22,0.00,,,0.07,128,weatherlink.com 1.10,2013-04-10 00:20:00,
2013-04-09 17:35:00,63.2,24.0,29.83,ENE,70,3.0,11.0,22,0.00,,,0.07,165,weatherlink.com 1.10,2013-04-10 00:35:00,
2013-04-09 17:50:00,62.9,22.0,29.83,NE,54,5.0,13.0,21,0.00,,,0.07,104,weatherlink.com 1.10,2013-04-10 00:50:00,
2013-04-09 18:05:00,62.2,22.0,29.83,NNE,29,2.0,10.0,21,0.00,,,0.07,83,weatherlink.com 1.10,2013-04-10 01:05:00,
2013-04-09 18:20:00,62.0,23.0,29.84,NE,55,4.0,9.0,22,0.00,,,0.07,51,weatherlink.com 1.10,2013-04-10 01:20:00,
2013-04-09 18:35:00,61.4,22.0,29.84,NE,36,5.0,10.0,22,0.00,,,0.07,25,weatherlink.com 1.10,2013-04-10 01:35:00,
2013-04-09 18:50:00,60.9,22.0,29.84,NNE,32,5.0,14.0,22,0.00,,,0.07,0,weatherlink.com 1.10,2013-04-10 01:50:00,
2013-04-09 19:05:00,60.5,22.0,29.85,NE,36,3.0,10.0,23,0.00,,,0.07,0,weatherlink.com 1.10,2013-04-10 02:05:00,
2013-04-09 19:20:00,60.2,22.0,29.85,NE,38,4.0,9.0,23,0.00,,,0.07,0,weatherlink.com 1.10,2013-04-10 02:20:00,
2013-04-09 19:35:00,59.9,22.0,29.86,NE,38,7.0,10.0,23,0.00,,,0.07,0,weatherlink.com 1.10,2013-04-10 02:35:00,
2013-04-09 19:50:00,59.5,22.0,29.87,NE,38,6.0,8.0,24,0.00,,,0.07,0,weatherlink.com 1.10,2013-04-10 02:50:00,
2013-04-09 20:05:00,59.0,23.0,29.87,NE,43,0.0,5.0,25,0.00,,,0.07,0,weatherlink.com 1.10,2013-04-10 03:05:00,
2013-04-09 20:20:00,57.8,24.0,29.88,NE,43,0.0,3.0,27,0.00,,,0.07,0,weatherlink.com 1.10,2013-04-10 03:20:00,
2013-04-09 20:35:00,56.5,24.0,29.89,NE,43,1.0,2.0,29,0.00,,,0.07,0,weatherlink.com 1.10,2013-04-10 03:35:00,
2013-04-09 20:50:00,55.5,24.0,29.90,NE,43,0.0,0.0,30,0.00,,,0.07,0,weatherlink.com 1.10,2013-04-10 03:50:00,
2013-04-09 21:05:00,54.5,23.0,29.91,NE,43,0.0,0.0,30,0.00,,,0.07,0,weatherlink.com 1.10,2013-04-10 04:05:00,
2013-04-09 21:20:00,54.0,25.0,29.91,NE,43,0.0,0.0,32,0.00,,,0.07,0,weatherlink.com 1.10,2013-04-10 04:20:00,
2013-04-09 21:35:00,53.3,27.0,29.92,NE,43,0.0,0.0,37,0.00,,,0.07,0,weatherlink.com 1.10,2013-04-10 04:35:00,
2013-04-09 21:50:00,52.7,26.0,29.92,NE,43,0.0,1.0,36,0.00,,,0.07,0,weatherlink.com 1.10,2013-04-10 04:50:00,
2013-04-09 22:05:00,52.1,26.0,29.92,NE,43,0.0,2.0,37,0.00,,,0.07,0,weatherlink.com 1.10,2013-04-10 05:05:00,
2013-04-09 22:20:00,51.5,28.0,29.93,NE,43,1.0,2.0,41,0.00,,,0.07,0,weatherlink.com 1.10,2013-04-10 05:20:00,
2013-04-09 22:35:00,51.5,27.0,29.93,NE,43,0.0,1.0,39,0.00,,,0.07,0,weatherlink.com 1.10,2013-04-10 05:35:00,
2013-04-09 22:50:00,51.0,28.0,29.93,NE,43,0.0,1.0,41,0.00,,,0.07,0,weatherlink.com 1.10,2013-04-10 05:50:00,
2013-04-09 23:05:00,50.2,29.0,29.94,NE,43,0.0,2.0,44,0.00,,,0.07,0,weatherlink.com 1.10,2013-04-10 06:05:00,
2013-04-09 23:20:00,49.8,28.0,29.94,NE,43,0.0,1.0,44,0.00,,,0.07,0,weatherlink.com 1.10,2013-04-10 06:20:00,
2013-04-09 23:35:00,49.9,29.0,29.95,NE,43,0.0,1.0,45,0.00,,,0.07,0,weatherlink.com 1.10,2013-04-10 06:35:00,
2013-04-09 23:50:00,50.3,28.0,29.95,NE,43,0.0,1.0,43,0.00,,,0.07,0,weatherlink.com 1.10,2013-04-10 06:50:00,